Location: Newark
(34.4697°S, 57.8467°W)
Time: 15:26:27
(UTC+00:00)

N. Korean satellite - Pass Details

Date: 20 July 2019
Orbit: 457 x 507 km, 97.2° (Epoch: 20 August)

Event Time Altitude Azimuth Distance (km) Brightness Sun altitude
Rises 22:36:56 0° 188° (S) 2,531 10.2 -19.3°
Reaches altitude 10° 22:39:28 10° 207° (SSW) 1,638 9.4 -19.8°
Maximum altitude 22:41:54 18° 251° (WSW) 1,217 9.3 -20.3°
Drops below altitude 10° 22:44:18 10° 295° (WNW) 1,613 10.3 -20.8°
Sets 22:46:47 0° 314° (NW) 2,475 11.1 -21.3°
